This demonstration page uses our WeatherBlox Daily Observations layout. Learn more.

Left ArrowRight Arrow

39.92423, -83.80882

Hourly Observations for March 9, 2021

Temp ( °F °C ) Dew Point ( °F °C ) Humidity (%) Winds ( mph kmh ) Pressure ( in mb ) Visibility ( mi km ) Precip ( " mm )
12:56 am 00:56 Clear 44 6.7 31 -0.6 60 60 SSW 7 11 30.39 1029 10 16 N/A
1:56 am 01:56 Clear 43 6.1 31 -0.6 63 63 SSW 6 9 30.39 1029 10 16 N/A
2:56 am 02:56 Clear 43 6.1 31 -0.6 63 63 SSW 8 13 30.39 1029 10 16 N/A
3:56 am 03:56 Clear 42 5.6 31 -0.6 65 65 SSW 7 11 30.38 1029 10 16 N/A
4:56 am 04:56 Clear 42 5.6 31 -0.6 65 65 SW 8 13 30.39 1029 10 16 N/A
5:56 am 05:56 Clear 41 5 30 -1.1 65 65 SSW 7 11 30.40 1030 10 16 N/A
6:56 am 06:56 Sunny 41 5 30 -1.1 65 65 SSW 7 11 30.42 1030 10 16 N/A
7:56 am 07:56 Sunny 45 7.2 31 -0.6 58 58 SSW 7 11 30.42 1030 10 16 N/A
8:56 am 08:56 Sunny 48 8.9 30 -1.1 50 50 SSW 12 19 30.43 1031 10 16 N/A
9:56 am 09:56 Sunny 52 11.1 32 undefined 47 47 SSW 7 11 30.44 1031 10 16 N/A
10:56 am 10:56 Sunny 57 13.9 34 1.1 42 42 SW 7 11 30.43 1030 10 16 N/A
11:56 am 11:56 Sunny 60 15.6 34 1.1 38 38 SW 15 24 30.41 1030 10 16 N/A
12:56 pm 12:56 Sunny 61 16.1 33 0.6 35 35 SW 9 15 30.40 1030 10 16 N/A
1:56 pm 13:56 Sunny 62 16.7 31 -0.6 31 31 SW 13 20 30.37 1028 10 16 N/A
2:56 pm 14:56 Sunny 64 17.8 29 -1.7 27 27 SW 9 15 30.34 1027 10 16 N/A
3:56 pm 15:56 Sunny 64 17.8 30 -1.1 28 28 SSW 10 17 30.34 1027 10 16 N/A
4:56 pm 16:56 Sunny 63 17.2 29 -1.7 28 28 SSW 12 19 30.32 1027 10 16 N/A
5:56 pm 17:56 Sunny 61 16.1 29 -1.7 30 30 SSW 7 11 30.31 1026 10 16 N/A
6:56 pm 18:56 Clear 57 13.9 28 -2.2 33 33 SSE 6 9 30.31 1026 10 16 N/A
7:56 pm 19:56 Clear 53 11.7 28 -2.2 38 38 SSE 5 7 30.31 1027 10 16 N/A
8:56 pm 20:56 Clear 50 10 29 -1.7 44 44 S 7 11 30.31 1026 10 16 N/A
9:56 pm 21:56 Clear 48 8.9 29 -1.7 48 48 SSE 8 13 30.32 1027 10 16 N/A
10:56 pm 22:56 Clear 48 8.9 28 -2.2 46 46 S 8 13 30.31 1027 10 16 N/A
11:56 pm 23:56 Clear 47 8.3 28 -2.2 48 48 S 6 9 30.30 1026 10 16 N/A

Powered by AerisWeather